DW8201 Weather Reports


Display with metric or nautical units.
time (UTC)temp
F
wind
direction
speed
MPH
gust
MPH
rain 1hr
in
rain 24hr
in
rain mn
in
humidity
%
barometer
mb
20260507081626 53 343 2.0 5.0 0.00 0.04 0.01 77 1014.2
20260507081118 53 22 3.0 7.0 0.00 0.04 0.01 79 1014.2
20260507081011 52 325 4.0 7.0 0.00 0.04 0.01 78 1014.2
20260507080113 52 334 2.0 7.0 0.00 0.04 0.01 77 1014.2
20260507075658 52 330 2.0 7.0 0.00 0.04 0.01 80 1014.1
20260507075549 51 43 2.0 8.0 0.00 0.05 0.01 79 1014.1
20260507074643 51 23 3.0 8.0 0.00 0.05 0.01 81 1014.0
20260507074134 51 356 3.0 8.0 0.00 0.05 0.01 80 1014.0
20260507073626 51 290 3.0 6.0 0.00 0.05 0.01 79 1014.0
20260507073119 51 322 3.0 6.0 0.00 0.05 0.01 80 1014.0
20260507073007 50 299 3.0 7.0 0.00 0.05 0.01 81 1013.9
20260507072503 50 12 2.0 8.0 0.00 0.05 0.01 81 1013.9
20260507071956 48 349 3.0 7.0 0.00 0.05 0.01 83 1013.9
20260507071659 50 342 2.0 8.0 0.00 0.05 0.01 81 1013.9
20260507071557 49 6 3.0 5.0 0.00 0.05 0.01 83 1013.8
20260507070734 49 12 2.0 5.0 0.00 0.05 0.01 83 1013.8
20260507070231 48 280 2.0 5.0 0.00 0.05 0.01 83 1013.8
20260507065121 48 326 2.0 7.0 0.00 0.05 0.01 83 1013.8
20260507064612 48 299 1.0 5.0 0.00 0.05 0.01 84 1013.8
20260507064121 47 326 2.0 5.0 0.00 0.05 0.01 84 1013.8
20260507063559 47 337 2.0 6.0 0.00 0.05 0.01 84 1013.8
20260507063453 47 345 2.0 6.0 0.00 0.05 0.01 84 1013.8
20260507062644 47 349 1.0 5.0 0.00 0.05 0.01 85 1013.7
20260507062537 47 352 2.0 6.0 0.00 0.05 0.01 85 1013.7
20260507061631 47 6 3.0 6.0 0.00 0.05 0.01 85 1013.6
20260507061122 47 303 2.0 5.0 0.00 0.05 0.01 85 1013.6
20260507060617 46 301 2.0 5.0 0.00 0.05 0.01 86 1013.6
20260507060112 46 356 2.0 5.0 0.00 0.05 0.01 86 1013.4
20260507055600 46 338 2.0 5.0 0.00 0.05 0.01 86 1013.5
20260507055056 46 340 2.0 5.0 0.00 0.05 0.01 86 1013.5
20260507054944 46 332 1.0 4.0 0.00 0.06 0.01 87 1013.4
20260507054643 46 323 2.0 5.0 0.00 0.05 0.01 87 1013.4
20260507053630 46 346 1.0 3.0 0.00 0.06 0.01 88 1013.4
20260507053521 46 6 1.0 3.0 0.00 0.06 0.01 88 1013.4
20260507052913 46 22 1.0 4.0 0.00 0.06 0.01 88 1013.3
20260507052707 46 278 1.0 3.0 0.00 0.06 0.01 88 1013.4
20260507051558 45 309 1.0 4.0 0.00 0.06 0.01 88 1013.2
20260507051151 46 328 1.0 3.0 0.00 0.06 0.01 88 1013.1
20260507050638 46 328 1.0 4.0 0.00 0.06 0.01 88 1013.0
20260507050131 46 278 0.0 4.0 0.00 0.06 0.01 88 1013.0
20260507045623 46 310 0.0 0.0 0.00 0.06 0.01 88 1013.0
20260507045115 46 310 1.0 4.0 0.00 0.06 0.01 87 1012.9
20260507045007 46 324 1.0 4.0 0.00 0.06 0.01 87 1012.8
20260507044102 46 340 1.0 4.0 0.00 0.06 0.01 87 1012.8
20260507043951 46 334 1.0 5.0 0.00 0.06 0.01 87 1012.7
20260507043146 46 318 1.0 5.0 0.01 0.06 0.01 87 1012.7
20260507042638 46 345 1.0 5.0 0.01 0.06 0.01 87 1012.6
20260507042427 46 343 1.0 4.0 0.01 0.06 0.01 87 1012.6
20260507042129 46 330 1.0 4.0 0.01 0.06 0.01 87 1012.6
20260507041118 46 331 1.0 3.0 0.01 0.06 0.01 87 1012.5
20260507040614 46 320 0.0 2.0 0.01 0.06 0.01 87 1012.5
20260507040108 46 332 0.0 2.0 0.01 0.06 0.01 87 1012.4
20260507035858 46 313 0.0 2.0 0.01 0.06 0.01 87 1012.3
20260507035050 47 334 0.0 1.0 0.01 0.06 0.01 86 1012.3
20260507034546 47 332 1.0 4.0 0.01 0.06 0.01 86 1012.2
20260507034136 47 337 1.0 4.0 0.01 0.06 0.01 86 1012.3
20260507033629 47 341 1.0 4.0 0.00 0.06 0.00 86 1012.3
20260507033121 47 341 1.0 3.0 0.00 0.06 0.00 86 1012.3
20260507032914 47 347 1.0 4.0 0.00 0.06 0.00 86 1012.3
20260507032110 47 341 1.0 4.0 0.00 0.06 0.00 86 1012.2
20260507031601 47 349 1.0 4.0 0.00 0.06 0.00 86 1012.3
20260507031051 47 344 0.0 3.0 0.00 0.06 0.00 86 1012.3
20260507030543 47 321 0.0 3.0 0.00 0.06 0.00 86 1012.2
20260507030134 47 339 1.0 3.0 0.00 0.06 0.00 86 1012.1
20260507025929 47 342 1.0 5.0 0.00 0.06 0.00 86 1012.1
20260507025122 47 356 1.0 5.0 0.00 0.06 0.00 86 1012.2
20260507024612 47 304 1.0 4.0 0.00 0.06 0.00 87 1012.1
20260507024359 47 326 0.0 2.0 0.00 0.06 0.00 88 1012.0
20260507024101 47 336 0.0 4.0 0.00 0.06 0.00 87 1012.1
20260507023048 47 306 0.0 2.0 0.00 0.06 0.00 88 1012.0
20260507022840 47 337 0.0 3.0 0.00 0.06 0.00 88 1012.0
20260507022133 47 318 0.0 3.0 0.00 0.06 0.00 89 1011.9
20260507021630 47 304 0.0 2.0 0.00 0.06 0.00 89 1011.9
20260507021120 47 291 0.0 3.0 0.00 0.06 0.00 89 1011.9
20260507020611 47 296 0.0 3.0 0.00 0.06 0.00 89 1011.9
20260507020108 47 328 0.0 0.0 0.00 0.06 0.00 89 1011.8
20260507015553 47 328 0.0 0.0 0.00 0.06 0.00 89 1011.8
20260507015342 47 328 0.0 0.0 0.00 0.06 0.00 89 1011.7
20260507015037 47 328 0.0 0.0 0.00 0.06 0.00 89 1011.8
20260507014631 47 328 0.0 0.0 0.00 0.06 0.00 89 1011.7
20260507013626 47 328 0.0 0.0 0.00 0.06 0.00 89 1011.7
20260507013131 47 328 0.0 0.0 0.00 0.06 0.00 89 1011.8
20260507012612 47 328 0.0 0.0 0.00 0.06 0.00 89 1011.7
20260507012408 47 328 0.0 0.0 0.00 0.06 0.00 88 1011.7
20260507011600 47 328 0.0 0.0 0.00 0.06 0.00 88 1011.7
20260507011052 47 328 0.0 0.0 0.00 0.06 0.00 89 1011.6
20260507010542 47 328 0.0 0.0 0.00 0.06 0.00 89 1011.6
20260507010352 48 328 0.0 0.0 0.00 0.06 0.00 89 1011.5
20260507005832 48 328 0.0 0.0 0.00 0.06 0.00 88 1011.6
20260507005325 47 328 0.0 0.0 0.00 0.07 0.00 88 1011.5
20260507004614 48 328 0.0 0.0 0.00 0.07 0.00 88 1011.5
20260507004108 48 328 0.0 0.0 0.00 0.07 0.00 89 1011.4
20260507003604 48 328 0.0 0.0 0.00 0.07 0.00 89 1011.5
20260507003056 48 328 0.0 0.0 0.00 0.07 0.00 89 1011.5
20260507002551 48 328 0.0 0.0 0.00 0.07 0.00 88 1011.5
20260507002045 48 328 0.0 0.0 0.00 0.07 0.00 88 1011.4
20260507001537 48 328 0.0 0.0 0.00 0.07 0.00 88 1011.3
20260507001045 48 301 0.0 0.0 0.00 0.07 0.00 89 1011.3
20260507000522 48 301 0.0 0.0 0.00 0.07 0.00 88 1011.3
20260507000019 48 301 0.0 0.0 0.00 0.07 0.00 88 1011.3
20260506235512 48 301 0.0 0.0 0.00 0.07 0.00 88 1011.4
20260506235100 48 301 0.0 0.0 0.00 0.08 0.00 88 1011.3
20260506234551 48 301 0.0 0.0 0.00 0.08 0.00 88 1011.4
20260506234042 48 301 0.0 0.0 0.00 0.08 0.00 88 1011.3
20260506233537 48 301 0.0 0.0 0.00 0.08 0.00 88 1011.3
20260506233034 48 301 0.0 0.0 0.00 0.08 0.00 88 1011.3
20260506232820 48 305 0.0 0.0 0.00 0.08 0.00 88 1011.2
20260506232620 48 301 0.0 0.0 0.00 0.08 0.00 88 1011.2
20260506231510 48 316 0.0 0.0 0.00 0.08 0.00 88 1011.2
20260506231004 48 300 0.0 1.0 0.00 0.08 0.00 88 1011.3
20260506230552 48 311 0.0 1.0 0.00 0.09 0.00 88 1011.1
20260506230359 48 311 0.0 1.0 0.00 0.09 0.00 87 1011.1
20260506225542 48 314 0.0 2.0 0.00 0.09 0.00 87 1011.1
20260506225034 48 303 0.0 3.0 0.00 0.09 0.00 87 1011.0
20260506224829 48 304 0.0 3.0 0.00 0.09 0.00 86 1011.0
20260506224023 48 313 0.0 0.0 0.00 0.09 0.00 86 1011.0
20260506223514 48 326 0.0 0.0 0.00 0.09 0.00 86 1010.9
20260506223008 48 326 0.0 0.0 0.00 0.09 0.00 86 1010.9
20260506222502 48 320 0.0 0.0 0.00 0.09 0.00 85 1010.9
20260506222256 48 320 0.0 2.0 0.00 0.09 0.00 85 1011.0
20260506221848 48 320 0.0 2.0 0.01 0.09 0.00 85 1010.9
20260506221339 48 326 0.0 2.0 0.01 0.09 0.00 85 1010.9
20260506220534 48 331 1.0 3.0 0.01 0.09 0.00 85 1010.9
20260506220027 48 343 0.0 3.0 0.01 0.09 0.09 85 1010.8
20260506215520 48 334 0.0 4.0 0.01 0.09 0.09 85 1010.8
20260506215011 48 328 1.0 4.0 0.01 0.09 0.09 85 1010.7
20260506214502 48 356 2.0 4.0 0.01 0.09 0.09 86 1010.7
20260506213955 48 6 1.0 4.0 0.01 0.09 0.09 86 1010.7
20260506213543 48 349 1.0 4.0 0.01 0.09 0.09 86 1010.6
20260506213032 48 356 0.0 3.0 0.01 0.09 0.09 86 1010.6
20260506212525 48 336 1.0 5.0 0.01 0.09 0.09 87 1010.6
20260506212017 48 6 1.0 5.0 0.01 0.09 0.09 87 1010.5
20260506211914 48 348 1.0 5.0 0.00 0.09 0.09 87 1010.6
20260506211055 48 340 1.0 3.0 0.00 0.09 0.09 87 1010.5
20260506210645 48 10 1.0 3.0 0.00 0.09 0.09 87 1010.5
20260506210135 48 346 1.0 4.0 0.00 0.09 0.09 87 1010.5
20260506205627 48 351 1.0 4.0 0.00 0.09 0.09 87 1010.5
20260506205430 49 10 0.0 4.0 0.00 0.09 0.09 87 1010.5
20260506204923 49 332 0.0 3.0 0.00 0.09 0.09 87 1010.4
20260506204102 49 337 0.0 1.0 0.00 0.09 0.09 87 1010.5
20260506203552 49 327 0.0 3.0 0.00 0.09 0.09 87 1010.4
20260506203140 49 327 1.0 3.0 0.00 0.09 0.09 87 1010.4
20260506202633 49 349 1.0 4.0 0.00 0.09 0.09 87 1010.4
20260506202129 49 337 1.0 4.0 0.00 0.09 0.09 87 1010.4
20260506201621 49 356 1.0 4.0 0.00 0.09 0.09 87 1010.4
20260506201114 49 334 1.0 4.0 0.00 0.09 0.09 87 1010.4
20260506200606 49 327 1.0 5.0 0.00 0.09 0.09 86 1010.3
20260506200059 49 1 1.0 5.0 0.00 0.09 0.09 86 1010.3
20260506195546 49 6 1.0 4.0 0.00 0.09 0.09 87 1010.3
20260506195038 49 6 1.0 4.0 0.00 0.09 0.09 86 1010.2
20260506194626 49 341 0.0 2.0 0.00 0.09 0.09 86 1010.2
20260506194128 49 356 0.0 3.0 0.00 0.09 0.09 86 1010.1
20260506194122 49 322 0.0 3.0 0.00 0.09 0.09 86 1010.1
20260506193108 49 351 1.0 4.0 0.00 0.09 0.09 86 1010.0
20260506192602 49 319 1.0 4.0 0.00 0.09 0.09 86 1009.9
20260506192057 49 1 1.0 3.0 0.00 0.09 0.09 85 1009.9
20260506191546 49 327 1.0 4.0 0.00 0.09 0.09 85 1009.8
20260506191244 49 333 0.0 3.0 0.00 0.09 0.09 85 1009.7
20260506191044 49 334 1.0 4.0 0.00 0.09 0.09 85 1009.8
20260506190640 49 332 0.0 4.0 0.00 0.09 0.09 85 1009.7
20260506190325 49 334 1.0 3.0 0.00 0.09 0.09 85 1009.7
20260506185610 49 346 1.0 3.0 0.00 0.09 0.09 85 1009.7
20260506184559 49 325 1.0 3.0 0.00 0.09 0.09 85 1009.6
20260506184051 49 13 0.0 2.0 0.00 0.09 0.09 85 1009.5
20260506183544 49 16 0.0 4.0 0.00 0.09 0.09 85 1009.5
20260506183032 49 350 1.0 5.0 0.00 0.09 0.09 84 1009.5
20260506182618 49 6 1.0 5.0 0.00 0.09 0.09 85 1009.3
20260506182113 49 1 1.0 5.0 0.00 0.09 0.09 84 1009.2
20260506181608 49 356 1.0 5.0 0.00 0.09 0.09 85 1009.2
20260506181602 49 33 2.0 5.0 0.00 0.09 0.09 85 1009.2
20260506180833 49 6 0.0 4.0 0.00 0.09 0.09 85 1009.1
20260506180059 49 345 1.0 4.0 0.00 0.09 0.09 85 1009.0
20260506175541 49 23 1.0 3.0 0.00 0.09 0.09 85 1009.0
20260506175034 49 64 2.0 7.0 0.00 0.09 0.09 85 1008.9
20260506174835 49 6 3.0 7.0 0.00 0.09 0.09 84 1008.9
20260506174110 49 343 3.0 6.0 0.00 0.09 0.09 84 1008.9
20260506173602 49 356 3.0 6.0 0.00 0.09 0.09 84 1008.8
20260506173054 50 12 3.0 6.0 0.00 0.09 0.09 84 1008.8
20260506172551 50 348 2.0 6.0 0.01 0.09 0.09 84 1008.7
20260506172546 50 6 2.0 6.0 0.01 0.09 0.09 84 1008.7
20260506171533 50 349 3.0 8.0 0.01 0.09 0.09 84 1008.6
20260506171030 50 356 4.0 8.0 0.01 0.09 0.09 84 1008.6
20260506170524 50 15 4.0 9.0 0.01 0.09 0.09 84 1008.6
20260506170325 50 34 4.0 9.0 0.01 0.09 0.09 84 1008.5
20260506165604 50 6 4.0 7.0 0.01 0.09 0.09 83 1008.5
20260506165056 50 324 2.0 7.0 0.01 0.09 0.09 84 1008.4
20260506164547 50 39 2.0 7.0 0.01 0.09 0.09 84 1008.3
20260506164055 50 28 2.0 6.0 0.01 0.09 0.09 83 1008.4
20260506163534 51 69 3.0 6.0 0.01 0.09 0.09 83 1008.3
20260506163026 51 6 3.0 6.0 0.01 0.09 0.09 82 1008.4
20260506162529 51 356 3.0 7.0 0.00 0.08 0.08 82 1008.4
20260506162015 51 6 3.0 8.0 0.00 0.08 0.08 82 1008.3
20260506161604 51 310 3.0 8.0 0.00 0.08 0.08 81 1008.3
20260506161110 51 18 4.0 11.0 0.00 0.08 0.08 82 1008.3
20260506160552 51 324 5.0 11.0 0.00 0.08 0.08 81 1008.3
20260506160053 51 356 3.0 10.0 0.00 0.08 0.08 80 1008.3
20260506155529 51 356 3.0 7.0 0.00 0.08 0.08 80 1008.3
20260506155024 51 349 4.0 8.0 0.00 0.08 0.08 80 1008.2
20260506154516 51 1 4.0 8.0 0.00 0.08 0.08 80 1008.2
20260506154011 51 318 4.0 8.0 0.00 0.08 0.08 79 1008.2
20260506154006 51 16 4.0 8.0 0.00 0.08 0.08 80 1008.2
20260506152955 52 332 3.0 8.0 0.00 0.08 0.08 79 1008.1
20260506152647 51 347 4.0 7.0 0.00 0.08 0.08 79 1008.0
20260506152643 51 1 3.0 7.0 0.00 0.08 0.08 79 1008.0
20260506152539 52 12 3.0 6.0 0.00 0.08 0.08 80 1008.1
20260506151018 51 1 4.0 8.0 0.00 0.08 0.08 79 1008.1
20260506150509 51 327 3.0 8.0 0.00 0.08 0.08 79 1008.1
20260506150000 51 6 4.0 8.0 0.00 0.08 0.08 78 1008.1
20260506145451 51 336 5.0 9.0 0.00 0.08 0.08 78 1008.1
20260506144942 51 11 4.0 9.0 0.00 0.08 0.08 78 1008.0
20260506144532 51 6 3.0 7.0 0.00 0.08 0.08 80 1008.1
20260506144024 51 27 3.0 7.0 0.00 0.08 0.08 81 1008.0
20260506143514 51 338 2.0 6.0 0.00 0.08 0.08 83 1008.0
20260506143006 51 308 2.0 6.0 0.00 0.08 0.08 83 1008.0
20260506142459 51 290 2.0 5.0 0.00 0.08 0.08 83 1008.0
20260506141949 51 338 2.0 6.0 0.00 0.08 0.08 83 1008.0
20260506141447 51 339 2.0 5.0 0.00 0.08 0.08 83 1008.0
20260506141443 51 338 2.0 6.0 0.00 0.08 0.08 84 1008.0
20260506140428 51 319 2.0 5.0 0.00 0.08 0.08 84 1008.0
20260506140019 50 31 3.0 5.0 0.00 0.08 0.08 85 1008.0
20260506135510 50 334 3.0 5.0 0.00 0.08 0.08 85 1008.0
20260506135002 50 1 3.0 6.0 0.00 0.08 0.08 85 1008.0
20260506134451 51 350 3.0 6.0 0.01 0.08 0.08 84 1008.0
20260506133942 51 334 2.0 6.0 0.01 0.08 0.08 85 1008.0
20260506133435 51 345 3.0 7.0 0.01 0.08 0.08 85 1008.0
20260506132925 51 327 3.0 7.0 0.01 0.08 0.08 84 1008.0
20260506132423 50 345 4.0 7.0 0.01 0.08 0.08 83 1007.9
20260506132418 51 324 3.0 5.0 0.01 0.08 0.08 84 1008.0
20260506131457 50 6 3.0 7.0 0.01 0.08 0.08 83 1007.9
20260506130949 51 356 3.0 8.0 0.01 0.08 0.08 85 1007.8
20260506130441 50 302 4.0 8.0 0.01 0.08 0.08 84 1007.8
20260506125936 50 334 4.0 8.0 0.01 0.08 0.08 84 1007.8
20260506125433 51 16 4.0 6.0 0.00 0.07 0.07 85 1007.8
20260506125428 51 321 3.0 7.0 0.01 0.08 0.08 85 1007.8
20260506124922 51 19 4.0 7.0 0.01 0.08 0.08 85 1007.8
20260506124618 51 356 4.0 8.0 0.00 0.07 0.07 84 1007.8
20260506123357 51 324 4.0 11.0 0.00 0.07 0.07 83 1007.7
20260506122948 51 45 4.0 11.0 0.00 0.07 0.07 83 1007.7
20260506122435 51 351 5.0 10.0 0.00 0.07 0.07 83 1007.6
20260506121930 51 1 4.0 8.0 0.00 0.07 0.07 84 1007.6
20260506121420 51 356 3.0 7.0 0.00 0.07 0.07 84 1007.5
20260506120911 50 345 4.0 8.0 0.00 0.07 0.07 83 1007.6
20260506120408 50 16 4.0 8.0 0.00 0.07 0.07 85 1007.5
20260506120404 50 343 4.0 12.0 0.00 0.07 0.07 84 1007.6
20260506115854 50 356 4.0 12.0 0.00 0.07 0.07 83 1007.5
20260506114837 50 11 4.0 8.0 0.00 0.07 0.07 85 1007.5
20260506114431 50 25 4.0 9.0 0.00 0.07 0.07 87 1007.5
20260506114426 50 27 4.0 8.0 0.00 0.07 0.07 85 1007.5
20260506113918 50 43 4.0 8.0 0.00 0.07 0.07 86 1007.5
20260506112906 50 1 4.0 9.0 0.00 0.07 0.07 87 1007.4
20260506112400 50 321 4.0 11.0 0.00 0.07 0.07 88 1007.4
20260506112356 50 18 3.0 8.0 0.00 0.07 0.07 87 1007.4
20260506111341 50 16 3.0 11.0 0.00 0.07 0.07 88 1007.4
20260506110834 50 328 2.0 8.0 0.00 0.07 0.07 88 1007.3
20260506110324 50 326 2.0 6.0 0.01 0.07 0.07 89 1007.2
20260506105822 50 30 3.0 8.0 0.01 0.07 0.07 89 1007.3
20260506105412 50 10 4.0 8.0 0.01 0.07 0.07 89 1007.3
20260506104909 50 6 2.0 12.0 0.01 0.07 0.07 90 1007.3
20260506104905 50 301 3.0 8.0 0.01 0.07 0.07 89 1007.3
20260506103852 49 26 2.0 12.0 0.01 0.07 0.07 90 1007.3
20260506103343 49 14 4.0 11.0 0.01 0.07 0.07 89 1007.3
20260506102837 49 344 4.0 11.0 0.01 0.07 0.07 89 1007.3
20260506102327 49 10 5.0 13.0 0.01 0.07 0.07 89 1007.2
20260506101819 49 329 5.0 13.0 0.01 0.07 0.07 90 1007.2
20260506101319 50 11 4.0 10.0 0.01 0.07 0.07 90 1007.1
20260506100815 50 1 4.0 12.0 0.01 0.07 0.07 90 1007.1
20260506100407 49 6 5.0 12.0 0.00 0.06 0.06 90 1007.0
20260506095853 49 23 5.0 12.0 0.00 0.06 0.06 89 1007.0
20260506095349 49 356 3.0 8.0 0.00 0.06 0.06 90 1006.8
20260506095345 49 333 5.0 10.0 0.00 0.06 0.06 90 1007.0
20260506094837 49 328 4.0 9.0 0.00 0.06 0.06 90 1007.0
20260506093820 50 346 4.0 10.0 0.00 0.06 0.06 91 1006.8
20260506093815 50 343 4.0 10.0 0.00 0.06 0.06 90 1006.8
20260506093307 50 6 4.0 8.0 0.00 0.06 0.06 92 1006.8
20260506092904 50 319 4.0 8.0 0.00 0.06 0.06 91 1006.8
20260506091840 50 295 4.0 11.0 0.00 0.06 0.06 92 1006.7
20260506091333 50 319 4.0 11.0 0.00 0.06 0.06 92 1006.6
20260506090822 50 356 3.0 7.0 0.00 0.06 0.06 92 1006.6
20260506090315 50 345 3.0 6.0 0.00 0.06 0.06 93 1006.6
20260506085812 49 345 4.0 9.0 0.00 0.06 0.06 93 1006.6
20260506085307 49 307 4.0 10.0 0.01 0.06 0.06 93 1006.5
20260506085305 49 351 4.0 10.0 0.01 0.06 0.06 93 1006.5
20260506084353 49 1 4.0 9.0 0.01 0.06 0.06 93 1006.5
20260506083845 49 1 5.0 12.0 0.01 0.06 0.06 93 1006.4
20260506083334 49 341 5.0 12.0 0.01 0.06 0.06 93 1006.4
20260506083227 49 33 4.0 9.0 0.01 0.06 0.06 94 1006.4
20260506082310 49 338 4.0 9.0 0.01 0.06 0.06 94 1006.3